Weather History for Tallahassee, FL

Change the Weather History Date:

Tuesday, August 20, 2013

  Actual Average Record
Temperature  
Mean Temperature 82 °F 82 °F  
Max Temperature 90 °F 91 °F 100 °F (1972)
Min Temperature 74 °F 72 °F 66 °F (1991)
Degree Days  
Heating Degree Days 0    
Month to date heating degree days 0  
Since 1 June heating degree days 0  
Since 1 July heating degree days 0  
Cooling Degree Days 17    
Month to date cooling degree days 368  
Year to date cooling degree days 1853  
Since 1 June cooling degree days 1391  
Growing Degree Days 32 (Base 50)    
Moisture  
Dew Point 73 °F    
Average Humidity 77    
Maximum Humidity 94    
Minimum Humidity 59    
Precipitation  
Precipitation 0.54 in 0.23 in 3.27 in (1953)
Month to date precipitation 6.72 5.07  
Year to date precipitation 51.39 41.63  
Sea Level Pressure  
Sea Level Pressure 30.06 in    
Wind  
Wind Speed 4 mph (NNE)    
Max Wind Speed 17 mph    
Max Gust Speed -    
Visibility 9 miles    
Events Fog , Rain , Thunderstorm    
T = Trace of Precipitation, MM = Missing Value Source: NWS Daily Summary

Daily Weather History Graph

Daily Weather History Graph

Search for Another Location

Airport:

Trip Planner

Search our weather history database for the weather conditions in past years. The results will help you decide how hot, cold, wet, or windy it might be!

Date:

Astronomy

Aug. 20, 2013 Rise Set
Actual Time 7:07 AM EDT 8:13 PM EDT
Civil Twilight 6:42 AM EDT 8:38 PM EDT
Nautical Twilight 6:12 AM EDT 9:08 PM EDT
Astronomical Twilight 5:42 AM EDT 9:38 PM EDT
Moon 7:49 PM EDT (8/20) 6:34 AM EDT (8/20)
Length of Visible Light 13h 56m
Length of Day
13h 06m
Full, 100% of the Moon is Illuminated
Aug 20
Full
Aug 20
Full
Aug 28
Last Quarter
Sep 5
New
Sep 12
First Quarter

Hourly Weather History & Observations

Time (EDT) Temp. Heat Index Dew Point Humidity Pressure Visibility Wind Dir Wind Speed Gust Speed Precip Events Conditions
12:53 AM 75.9 °F - 71.1 °F 85% 30.06 in 10.0 mi ENE 3.5 mph - N/A   Overcast
1:53 AM 75.9 °F - 71.1 °F 85% 30.04 in 10.0 mi ESE 4.6 mph - N/A   Overcast
2:53 AM 73.9 °F - 71.1 °F 91% 30.05 in 10.0 mi ESE 5.8 mph - N/A   Clear
3:53 AM 75.0 °F - 71.1 °F 87% 30.01 in 10.0 mi Calm Calm - N/A   Clear
4:06 AM 75.2 °F - 71.6 °F 89% 30.01 in 10.0 mi Calm Calm - N/A   Partly Cloudy
4:19 AM 75.2 °F - 71.6 °F 89% 30.01 in 10.0 mi Calm Calm - N/A   Mostly Cloudy
4:45 AM 75.2 °F - 71.6 °F 89% 30.01 in 10.0 mi East 3.5 mph - N/A   Overcast
4:53 AM 75.0 °F - 72.0 °F 90% 30.00 in 5.0 mi ENE 3.5 mph - N/A   Overcast
5:01 AM 75.2 °F - 71.6 °F 89% 30.00 in 1.8 mi East 3.5 mph - N/A   Overcast
5:26 AM 75.2 °F - 73.4 °F 94% 30.01 in 3.0 mi East 5.8 mph - N/A   Overcast
5:53 AM 75.0 °F - 72.0 °F 90% 30.01 in 10.0 mi Variable 6.9 mph - N/A Fog Patches of Fog
6:30 AM 75.2 °F - 71.6 °F 89% 30.02 in 10.0 mi Calm Calm - N/A Fog Patches of Fog
6:53 AM 75.0 °F - 72.0 °F 90% 30.03 in 10.0 mi Calm Calm - N/A   Scattered Clouds
7:53 AM 75.9 °F - 73.0 °F 91% 30.06 in 10.0 mi Calm Calm - N/A   Partly Cloudy
8:53 AM 77.0 °F - 72.0 °F 84% 30.07 in 10.0 mi ENE 3.5 mph - N/A   Scattered Clouds
9:53 AM 81.0 °F 85.2 °F 72.0 °F 74% 30.09 in 10.0 mi East 3.5 mph - N/A   Partly Cloudy
10:53 AM 84.9 °F 90.7 °F 72.0 °F 65% 30.10 in 10.0 mi Variable 3.5 mph - N/A   Scattered Clouds
11:53 AM 86.0 °F 92.2 °F 72.0 °F 63% 30.10 in 10.0 mi ENE 4.6 mph - N/A   Scattered Clouds
12:14 PM 87.8 °F 93.8 °F 71.6 °F 58% 30.10 in 10.0 mi East 5.8 mph - N/A   Mostly Cloudy
12:53 PM 88.0 °F 93.8 °F 71.1 °F 57% 30.09 in 10.0 mi Variable 4.6 mph - N/A   Mostly Cloudy
1:53 PM 86.0 °F 92.2 °F 72.0 °F 63% 30.07 in 10.0 mi NNW 4.6 mph - N/A   Mostly Cloudy
2:37 PM 84.2 °F 92.3 °F 75.2 °F 74% 30.06 in 10.0 mi North 8.1 mph - 0.02 in Rain , Thunderstorm Light Thunderstorms and Rain
2:53 PM 82.9 °F 90.8 °F 75.9 °F 79% 30.06 in 10.0 mi NNW 10.4 mph - 0.02 in Thunderstorm Thunderstorm
3:23 PM 78.8 °F - 73.4 °F 83% 30.07 in 1.5 mi North 12.7 mph - 0.06 in Rain , Thunderstorm Heavy Thunderstorms and Rain
3:53 PM 77.0 °F - 73.9 °F 90% 30.07 in 10.0 mi West 13.8 mph - 0.48 in Rain , Thunderstorm Light Thunderstorms and Rain
4:01 PM 77.0 °F - 73.4 °F 89% 30.07 in 10.0 mi NW 12.7 mph - 0.02 in Rain , Thunderstorm Heavy Thunderstorms and Rain
4:29 PM 77.0 °F - 73.4 °F 89% 30.06 in 10.0 mi NNW 4.6 mph - 0.04 in Rain Light Rain
4:53 PM 77.0 °F - 75.0 °F 94% 30.06 in 10.0 mi WNW 3.5 mph - 0.04 in   Mostly Cloudy
5:53 PM 80.1 °F 84.5 °F 73.9 °F 81% 30.05 in 10.0 mi NW 4.6 mph - N/A   Scattered Clouds
6:53 PM 82.0 °F 87.4 °F 73.0 °F 74% 30.06 in 10.0 mi NNW 6.9 mph - N/A   Partly Cloudy
7:53 PM 80.1 °F 84.2 °F 73.0 °F 79% 30.08 in 10.0 mi North 4.6 mph - N/A   Partly Cloudy
8:53 PM 78.1 °F - 73.0 °F 84% 30.09 in 10.0 mi North 4.6 mph - N/A   Partly Cloudy
9:53 PM 77.0 °F - 72.0 °F 84% 30.10 in 10.0 mi NNE 3.5 mph - N/A   Partly Cloudy
10:16 PM 77.0 °F - 73.4 °F 89% 30.11 in 10.0 mi Calm Calm - N/A Thunderstorm Thunderstorm
10:42 PM 77.0 °F - 73.4 °F 89% 30.12 in 10.0 mi Calm Calm - N/A   Partly Cloudy
10:53 PM 77.0 °F - 73.0 °F 88% 30.11 in 10.0 mi North 3.5 mph - N/A   Partly Cloudy
11:53 PM 77.0 °F - 72.0 °F 84% 30.10 in 10.0 mi Calm Calm - N/A   Clear